Other Public Products
Issued by NWS Grand Forks, ND

Home | Current Version | Previous Version | Text Only | Print | Product List | Glossary On
Versions: 1 2 3 4 5 6 7 8 9 10 11 12 13 14 15 16 17 18 19 20 21 22 23 24 25 26 27 28 29 30 31 32 33 34 35 36 37 38 39 40 41 42 43 44 45 46 47 48 49 50
000
FPUS83 KFGF 080210
OPUFGF
PRAIRIE TO PINES WEATHER ROUNDUP
NATIONAL WEATHER SERVICE EASTERN NORTH DAKOTA/GRAND FORKS ND
900 PM CDT TUE JUL 07 2015

 **SATELLITE DATA USED TO AUGMENT SKY COVER AT AUTOMATED STATIONS**
 *****  WEATHER ACROSS EASTERN NORTH DAKOTA  *****

CITY           SKY/WX    TMP DP  RH WIND       PRES   REMARKS
GRAND FORKS    PTCLDY    65  49  56 S7        30.00F
GRAND FORKS AF CLEAR     64  49  56 S8        30.00F
GRAND CITY NWS   N/A     66 N/A N/A S5          N/A
BUXTON         NOT AVBL
DEVILS LAKE    CLEAR     70  52  52 S9        29.96F
FARGO          CLEAR     66  46  48 S7        30.05S
WAHPETON ARPT  CLEAR     61  46  59 S6        30.07F
$$

 *****  WEATHER ACROSS CENTRAL AND WESTERN NORTH DAKOTA  *****

CITY           SKY/WX    TMP DP  RH WIND       PRES   REMARKS
JAMESTOWN      PTCLDY    66  49  54 S8        30.02S
BISMARCK       CLOUDY    69  56  62 SE8       29.98F
MINOT          TSTM      58  57  97 N6        29.98R VSB 3/4
MINOT AFB      TSTM      61  61 100 MISG      29.95F
GARRISON         N/A     70  58  65 S14       29.95F
WILLISTON      CLEAR     74  51  44 NE3       29.93F
DICKINSON      CLOUDY    63  59  87 NE7       29.96S
HETTINGER      MOCLDY    61  56  83 SE14      29.98R
$$

 *****  OTHER OBSERVATIONS NORTHEAST NORTH DAKOTA  *****

CITY           SKY/WX    TMP DP  RH WIND       PRES   REMARKS
WALHALLA       FAIR      66  52  59 MISG      29.97S
LANGDON        FAIR      63  55  77 S7        29.98F
CAVALIER       FAIR      66  50  55 S5        29.97F
GRAFTON        FAIR      63  52  67 S7        30.00S
CANDO          FAIR      64  55  72 S7        29.97F
FORT TOTTEN      N/A     69  52  53 S7        29.95
ROLLA          FAIR      63  57  82 SW7       29.97F
RUGBY          NOT AVBL
 ***** THE ABOVE OBSERVATIONS ARE NON NWS ARE NOT QUALITY
        CONTROLLED AND MAY MIS-REPORT RAIN FOR SNOW...
$$

 *****  OTHER OBSERVATIONS SOUTHEAST NORTH DAKOTA *****

CITY           SKY/WX    TMP DP  RH WIND       PRES   REMARKS
COOPERSTOWN    NOT AVBL
VALLEY CITY    FAIR      63  46  55 S6        30.04S
OAKES            N/A     59  54  82 SE8       30.05S
GWINNER        FAIR      66  50  55 SE7       30.06S
BUFFALO        NOT AVBL
WYNDMERE         N/A     61  52  72 SE3         N/A
 ***** THE ABOVE OBSERVATIONS ARE NON NWS ARE NOT QUALITY
       CONTROLLED AND MAY MIS-REPORT RAIN FOR SNOW...
$$

  *****  WEATHER ACROSS NORTHERN MINNESOTA  *****

CITY           SKY/WX    TMP DP  RH WIND       PRES   REMARKS
FLAG ISLAND    PTCLDY    66  50  55 SW7       30.00F
WARROAD        PTCLDY    64  54  68 CALM      30.03F
ROSEAU         CLEAR     63  54  72 S6        30.02F
HALLOCK        CLEAR     63  54  72 S8        29.99S
THF RVR FALLS  CLEAR     63  52  67 S6        30.04F
HALSTAD        NOT AVBL
FOSSTON        CLEAR     61  46  59 CALM      30.07F
BAUDETTE       CLEAR     63  49  60 SW5       30.04S
WASKISH        CLEAR     63  48  59 S3        30.06S
CROOKSTON      CLEAR     64  52  63 S7        30.04S
$$
  *****  WEATHER ACROSS CENTRAL AND WEST MINNESOTA  *****

CITY           SKY/WX    TMP DP  RH WIND       PRES   REMARKS
BEMIDJI        CLEAR     64  47  53 SW5       30.07S
PARK RAPIDS    PTCLDY    63  49  60 SW5       30.08F
WADENA         PTCLDY    63  48  59 CALM      30.09S
DETROIT LAKES  PTCLDY    64  46  52 SW5       30.09F
MOORHEAD       CLEAR     63  50  63 S6        30.07S
FERGUS FALLS   CLEAR     64  50  59 S5        30.08S
ELBOW LAKE     FAIR      61  51  69 S5        30.08F
MORRIS MN      CLEAR     64  55  72 S5        30.08F
STAPLES        PTCLDY    63  46  55 CALM      30.09S
WHEATON        CLEAR     61  48  63 S6        30.09S
$$
  *****  WEATHER ELSEWHERE ACROSS MINNESOTA  *****

CITY           SKY/WX    TMP DP  RH WIND       PRES   REMARKS
DULUTH         CLEAR     64  48  56 SW3       30.09S
INTRNTL FALLS  CLEAR     64  49  57 SW5       30.04S
ELY            CLEAR     61  46  59 CALM      30.08S
CLOQUET        CLEAR     64  46  52 SW3       30.09S
BRAINERD       PTCLDY    60  51  72 CALM      30.10S
HIBBING        CLEAR     57  50  77 CALM      30.08S
ALEXANDRIA     CLEAR     64  47  53 S5        30.10F
SAINT CLOUD    CLEAR     61  54  77 CALM      30.10F
MINNEAPOLIS    MOCLDY    67  46  47 NE7       30.10S
$$

  *****  WEATHER ACROSS SOUTH DAKOTA  *****

CITY           SKY/WX    TMP DP  RH WIND       PRES   REMARKS
SIOUX FALLS    MOCLDY    63  50  62 E8        30.10S
BROOKINGS      MOCLDY    63  46  55 SE7       30.11F
WATERTOWN      PTCLDY    64  47  53 SE6       30.09S
HURON          MOCLDY    65  50  58 S6        30.07S
SISSETON         N/A     62  50  64 S7        30.06F
ABERDEEN       PTCLDY    64  49  57 S8        30.06S
MITCHELL       PTCLDY    66  55  67 SE3       30.08F
PIERRE         CLOUDY    68  56  65 SE14      30.02S
MOBRIDGE       PTCLDY    71  57  61 S17       29.99S
RAPID CITY     PTCLDY    67  57  70 SE8       29.99F
$$

  *****  SOME WEATHER IN NEARBY STATES *****

CITY           SKY/WX    TMP DP  RH WIND       PRES   REMARKS
GLASGOW MT     MOCLDY    75  44  33 NW10      29.96R
GREAT FALLS MT MOSUNNY   66  48  52 NE3       30.09S
CHEYENNE WY    LGT RAIN  60  54  80 S8        30.14R
SCOTTSBLUFF NE CLOUDY    66  51  58 SE14      30.06S
OMAHA NE       MOCLDY    67  54  63 NE5       30.08S
DES MOINES IA  MOCLDY    67  50  54 NE7       30.08R
DAVENPORT IA   MOCLDY    63  57  81 NE6       30.07R
CHICAGO IL     PTCLDY    58  45  62 NE9       30.08S
EAU CLAIRE WI  CLEAR     61  51  70 N3        30.09S
LA CROSSE WI   CLOUDY    64  52  64 CALM      30.08S
$$

  *****  SOME NATIONAL WEATHER *****

CITY           SKY/WX    TMP DP  RH WIND       PRES   REMARKS
LA GUARDIA NY  PTCLDY    84  67  56 SW10      29.97R
RALEIGH NC     PTCLDY    82  72  71 S9        30.09R
ATLANTA GA     MOCLDY    81  70  69 SW6       30.15R
NEW ORLEANS LA PTCLDY    84  74  71 SE10      30.09R HX  91
OKLAHOMA CITY  LGT RAIN  67  66  97 NE13      29.96F VSB 1
ALBUQUERQUE NM MOCLDY    74  58  57 SE22      30.06R
SALT LAKE CITY CLOUDY    78  53  41 E16       29.94S
LOS ANGELES CA MOSUNNY   67  60  78 SW13      29.88S
BOISE ID       MOSUNNY   91  43  18 W12       29.81S
SEATTLE WA     PTSUNNY   76  57  51 W6        29.90F
$$

*** WEATHER ACROSS MANITOBA...SASKATCHEWAN AND ONTARIO ***
                ***ONTARIO***

CITY           SKY/WX    TMP DP  RH WIND       PRES   REMARKS
GERALDTON      PTCLDY    63  50  63 SW6       29.99R
THUNDER BAY    PTCLDY    63  50  63 SW6       30.03R
SIOUX LOOKOUT  PTCLDY    59  46  63 SW3       30.01S
TORONTO        CLOUDY    63  59  88 N20G28    29.92R
BIG TROUT LK   CLEAR     68  46  45 W8G17     29.79
PICKLE LAKE    PTCLDY    68  43  40 SW8       29.93R
DRYDEN         PTCLDY    64  46  52 SW6       30.02S
KENORA         MOCLDY    64  50  59 SW8       30.01S
$$
                *** MANITOBA***

CITY           SKY/WX    TMP DP  RH WIND       PRES   REMARKS
BRANDON        MOCLDY    66  57  72 SW10      29.92S
DAUPHIN        CLOUDY    61  57  88 SE2       29.90F
ISLAND LAKE    LGT RAIN  57  55  94 W12       29.85S
PILOT MOUND      N/A     63  57  82 S6          N/A
THE PAS        MOCLDY    63  45  51 NW9       29.90S
THOMPSON       PTCLDY    57  41  54 W8        29.86R
WINNIPEG       PTCLDY    68  52  56 SW14      29.96S
LYNN LAKE      PTCLDY    55  37  50 N9        29.88S
CHURCHILL      MOCLDY    52  46  82 W7        29.69S
GILLAM         CLEAR     52  41  66 NW8       29.82S
$$
                ***SASKATCHEWAN***

CITY           SKY/WX    TMP DP  RH WIND       PRES   REMARKS
ESTEVAN        MOCLDY    68  55  64 S6        29.92F THUNDER
KINDERSLEY     MOSUNNY   63  41  45 N8        30.04S
LLOYDMINSTER   PTSUNNY   63  37  39 NW3       30.03F
PRINCE ALBERT  MOSUNNY   61  41  48 N3        29.98S
REGINA         CLEAR     63  54  72 N21       29.96R SMOKE
YORKTON        CLEAR     63  57  82 NW3       29.91R


USA.gov is the U.S. government's official web portal to all federal, state and local government web resources and services.